SV2GWY Weather Reports


time (UTC)temp
C
wind
direction
speed
KPH
gust
KPH
rain 1hr
cm
rain 24hr
cm
rain mn
cm
humidity
%
barometer
mb
20260906064954 25 285 4.8 12.9 0.00 0.00 0.00 56 1018.6
20260906064544 25 329 4.8 12.9 0.00 0.00 0.00 58 1018.1
20260906064451 25 316 8.0 12.9 0.00 0.00 0.00 58 1018.6
20260906063943 25 296 4.8 11.3 0.00 0.00 0.00 60 1018.5
20260906063442 25 316 6.4 11.3 0.00 0.00 0.00 62 1018.5
20260906063044 25 295 3.2 11.3 0.00 0.00 0.00 64 1018.2
20260906063003 25 281 4.8 11.3 0.00 0.00 0.00 64 1018.5
20260906062443 24 65 1.6 8.0 0.00 0.00 0.00 65 1018.4
20260906061943 24 278 4.8 8.0 0.00 0.00 0.00 66 1018.4
20260906061541 24 314 3.2 8.0 0.00 0.00 0.00 65 1018.1
20260906061451 24 323 3.2 6.4 0.00 0.00 0.00 65 1018.5
20260906060943 23 261 1.6 8.0 0.00 0.00 0.00 67 1018.5
20260906060443 23 324 4.8 8.0 0.00 0.00 0.00 68 1018.3
20260906060042 23 327 3.2 8.0 0.00 0.00 0.00 69 1017.9
20260906055951 23 319 3.2 8.0 0.00 0.00 0.00 69 1018.3
20260906055444 22 245 3.2 8.0 0.00 0.00 0.00 70 1018.3
20260906054942 22 319 3.2 8.0 0.00 0.00 0.00 70 1018.3
20260906054542 22 236 1.6 8.0 0.00 0.00 0.00 70 1017.9
20260906054503 22 302 3.2 8.0 0.00 0.00 0.00 71 1018.3
20260906053942 22 285 4.8 8.0 0.00 0.00 0.00 71 1018.4
20260906053442 22 324 4.8 8.0 0.00 0.00 0.00 71 1018.3
20260906053042 22 229 0.0 8.0 0.00 0.00 0.00 72 1017.9
20260906053004 22 221 1.6 8.0 0.00 0.00 0.00 72 1018.3
20260906052442 22 236 3.2 6.4 0.00 0.00 0.00 72 1018.3
20260906051945 22 271 1.6 4.8 0.00 0.00 0.00 72 1018.2
20260906051549 22 281 1.6 4.8 0.00 0.00 0.00 72 1017.8
20260906051453 22 309 1.6 4.8 0.00 0.00 0.00 72 1018.2
20260906050944 22 127 0.0 1.6 0.00 0.00 0.00 69 1018.1
20260906050444 21 106 0.0 0.0 0.00 0.00 0.00 70 1018.1
20260906050047 21 141 0.0 0.0 0.00 0.00 0.00 69 1017.7
20260906045953 21 156 0.0 0.0 0.00 0.00 0.00 69 1018.1
20260906045444 21 158 0.0 0.0 0.00 0.00 0.00 69 1018.0
20260906044944 21 158 0.0 0.0 0.00 0.00 0.00 70 1018.0
20260906044542 20 159 0.0 0.0 0.00 0.00 0.00 71 1017.6
20260906044453 20 158 0.0 0.0 0.00 0.00 0.00 71 1017.9
20260906043955 20 158 0.0 0.0 0.00 0.00 0.00 72 1018.0
20260906043443 19 158 0.0 0.0 0.00 0.00 0.00 73 1017.9
20260906043043 19 159 0.0 0.0 0.00 0.00 0.00 74 1017.5
20260906043003 19 158 0.0 0.0 0.00 0.00 0.00 74 1017.8
20260906042444 18 216 0.0 0.0 0.00 0.00 0.00 75 1017.9
20260906041944 18 145 0.0 0.0 0.00 0.00 0.00 74 1017.8
20260906041544 18 224 0.0 0.0 0.00 0.00 0.00 74 1017.3
20260906041453 18 225 0.0 0.0 0.00 0.00 0.00 74 1017.7
20260906040944 18 207 0.0 0.0 0.00 0.00 0.00 73 1017.6
20260906040443 18 136 0.0 3.2 0.00 0.00 0.00 72 1017.5
20260906040046 18 143 0.0 3.2 0.00 0.00 0.00 72 1017.1
20260906035952 18 221 0.0 1.6 0.00 0.00 0.00 72 1017.5
20260906035444 18 232 0.0 1.6 0.00 0.00 0.00 71 1017.5
20260906034943 18 200 0.0 1.6 0.00 0.00 0.00 70 1017.4
20260906034543 18 200 0.0 1.6 0.00 0.00 0.00 70 1017.0
20260906034503 18 200 0.0 1.6 0.00 0.00 0.00 70 1017.3
20260906033944 18 228 0.0 1.6 0.00 0.00 0.00 68 1017.4
20260906033444 18 223 0.0 1.6 0.00 0.00 0.00 67 1017.3
20260906033047 18 141 0.0 1.6 0.00 0.00 0.00 66 1016.9
20260906032952 18 137 0.0 0.0 0.00 0.00 0.00 66 1017.3
20260906032443 18 141 0.0 1.6 0.00 0.00 0.00 65 1017.3
20260906031943 18 229 0.0 1.6 0.00 0.00 0.00 64 1017.3
20260906031555 18 237 0.0 1.6 0.00 0.00 0.00 63 1016.9
20260906031453 18 237 0.0 1.6 0.00 0.00 0.00 63 1017.3
20260906030943 18 153 0.0 3.2 0.00 0.00 0.00 62 1017.2
20260906030443 18 187 0.0 4.8 0.00 0.00 0.00 61 1017.2
20260906030044 18 119 0.0 4.8 0.00 0.00 0.00 61 1016.7
20260906025953 18 124 0.0 4.8 0.00 0.00 0.00 61 1017.1
20260906025443 18 120 0.0 3.2 0.00 0.00 0.00 61 1017.1
20260906024943 18 127 0.0 3.2 0.00 0.00 0.00 61 1017.1
20260906024543 18 172 0.0 0.0 0.00 0.00 0.00 62 1016.7
20260906024452 18 131 0.0 0.0 0.00 0.00 0.00 61 1017.0
20260906023944 18 219 0.0 0.0 0.00 0.00 0.00 62 1017.0
20260906023444 18 94 0.0 0.0 0.00 0.00 0.00 62 1017.0
20260906023044 18 228 0.0 0.0 0.00 0.00 0.00 61 1016.6
20260906022953 18 230 0.0 0.0 0.00 0.00 0.00 61 1017.0
20260906022445 18 229 0.0 0.0 0.00 0.00 0.00 61 1016.9
20260906022007 18 135 0.0 0.0 0.00 0.00 0.00 61 1017.0
20260906021544 18 221 0.0 0.0 0.00 0.00 0.00 60 1016.5
20260906021503 18 223 0.0 0.0 0.00 0.00 0.00 60 1016.9
20260906020943 18 166 0.0 0.0 0.00 0.00 0.00 60 1016.9
20260906020444 18 160 0.0 0.0 0.00 0.00 0.00 59 1016.9
20260906020043 19 195 0.0 0.0 0.00 0.00 0.00 59 1016.5
20260906015954 19 195 0.0 0.0 0.00 0.00 0.00 59 1016.9
20260906015454 19 217 0.0 0.0 0.00 0.00 0.00 58 1017.0
20260906014945 19 266 0.0 0.0 0.00 0.00 0.00 58 1017.0
20260906014544 19 266 0.0 1.6 0.00 0.00 0.00 58 1016.6
20260906014452 19 266 0.0 1.6 0.00 0.00 0.00 58 1017.0
20260906013945 19 266 0.0 1.6 0.00 0.00 0.00 58 1017.0
20260906013444 19 266 0.0 1.6 0.00 0.00 0.00 57 1016.9
20260906013044 20 233 0.0 1.6 0.00 0.00 0.00 57 1016.5
20260906012952 20 231 0.0 1.6 0.00 0.00 0.00 57 1016.9
20260906012443 20 139 0.0 3.2 0.00 0.00 0.00 57 1016.9
20260906011943 20 178 0.0 3.2 0.00 0.00 0.00 57 1016.9
20260906011544 20 135 0.0 3.2 0.00 0.00 0.00 56 1016.5
20260906011452 20 135 0.0 3.2 0.00 0.00 0.00 56 1016.9
20260906010945 20 226 0.0 3.2 0.00 0.00 0.00 56 1016.9
20260906010444 20 161 0.0 6.4 0.00 0.00 0.00 56 1016.9
20260906010044 20 210 0.0 6.4 0.00 0.00 0.00 56 1016.5
20260906005954 20 203 1.6 6.4 0.00 0.00 0.00 56 1016.9
20260906005455 20 192 0.0 3.2 0.00 0.00 0.00 56 1016.9
20260906004944 20 224 0.0 3.2 0.00 0.00 0.00 56 1016.9
20260906004544 20 221 0.0 4.8 0.00 0.00 0.00 56 1016.7
20260906004453 20 219 0.0 4.8 0.00 0.00 0.00 56 1017.1
20260906003944 20 120 1.6 4.8 0.00 0.00 0.00 56 1017.0
20260906003444 20 143 1.6 4.8 0.00 0.00 0.00 56 1017.0
20260906003044 20 235 0.0 4.8 0.00 0.00 0.00 57 1016.6
20260906002953 20 226 1.6 4.8 0.00 0.00 0.00 56 1017.0
20260906002445 20 210 0.0 4.8 0.00 0.00 0.00 56 1017.0
20260906001945 20 241 1.6 4.8 0.00 0.00 0.00 56 1016.9
20260906001544 20 205 0.0 3.2 0.00 0.00 0.00 56 1016.6
20260906001453 20 219 0.0 3.2 0.00 0.00 0.00 56 1017.0
20260906000945 20 233 0.0 6.4 0.00 0.00 0.00 57 1017.1
20260906000445 20 192 1.6 6.4 0.00 0.00 0.00 56 1017.0
20260906000045 20 256 0.0 6.4 0.00 0.00 0.00 57 1016.6
20260905235954 20 210 1.6 6.4 0.00 0.00 0.00 57 1017.0
20260905235456 20 254 1.6 4.8 0.00 0.00 0.00 57 1017.0
20260905234945 20 169 1.6 4.8 0.00 0.00 0.00 57 1017.1
20260905234545 20 141 0.0 1.6 0.00 0.00 0.00 57 1016.9
20260905234453 20 141 0.0 1.6 0.00 0.00 0.00 57 1017.3
20260905233944 20 220 0.0 1.6 0.00 0.00 0.00 57 1017.2
20260905233455 20 223 0.0 3.2 0.00 0.00 0.00 57 1017.3
20260905233048 20 159 0.0 3.2 0.00 0.00 0.00 56 1016.9
20260905233004 20 159 0.0 3.2 0.00 0.00 0.00 56 1017.3
20260905232445 20 176 0.0 3.2 0.00 0.00 0.00 57 1017.3
20260905231944 20 172 0.0 4.8 0.00 0.00 0.00 57 1017.1
20260905231545 20 189 1.6 4.8 0.00 0.00 0.00 56 1016.7
20260905231454 20 142 1.6 4.8 0.00 0.00 0.00 56 1017.1
20260905230944 21 199 1.6 3.2 0.00 0.00 0.00 56 1017.3
20260905230444 21 165 0.0 6.4 0.00 0.00 0.00 56 1017.3
20260905230050 20 270 0.0 6.4 0.00 0.00 0.00 57 1016.9
20260905225954 20 122 1.6 6.4 0.00 0.00 0.00 57 1017.4
20260905225444 20 143 1.6 6.4 0.00 0.00 0.00 58 1017.4
20260905224944 20 266 1.6 3.2 0.00 0.00 0.00 58 1017.4
20260905224600 20 200 0.0 1.6 0.00 0.00 0.00 58 1017.0
20260905224453 20 200 0.0 1.6 0.00 0.00 0.00 58 1017.5
20260905223955 20 217 0.0 1.6 0.00 0.00 0.00 58 1017.5
20260905223455 21 121 0.0 1.6 0.00 0.00 0.00 58 1017.5
20260905223044 21 37 0.0 3.2 0.00 0.00 0.00 58 1017.1
20260905222954 21 141 0.0 3.2 0.00 0.00 0.00 58 1017.5
20260905222445 21 203 0.0 4.8 0.00 0.00 0.00 58 1017.4
20260905221945 21 220 0.0 6.4 0.00 0.00 0.00 58 1017.4
20260905221556 21 193 0.0 6.4 0.00 0.00 0.00 58 1017.0
20260905221453 21 198 1.6 6.4 0.00 0.00 0.00 58 1017.4
20260905220956 20 148 1.6 4.8 0.00 0.00 0.00 59 1017.3
20260905220444 20 221 1.6 4.8 0.00 0.00 0.00 59 1017.4
20260905220053 21 159 1.6 4.8 0.00 0.00 0.00 59 1017.1
20260905215954 21 160 3.2 4.8 0.00 0.00 0.00 59 1017.5
20260905215444 21 221 0.0 3.2 0.00 0.00 0.00 59 1017.5
20260905214945 21 233 1.6 3.2 0.00 0.00 0.00 59 1017.5
20260905214546 21 191 0.0 3.2 0.00 0.00 0.00 59 1017.1
20260905214454 21 138 1.6 3.2 0.00 0.00 0.00 59 1017.6
20260905213945 21 109 0.0 3.2 0.00 0.00 0.00 59 1017.7
20260905213445 21 154 0.0 3.2 0.00 0.00 0.00 58 1017.7
20260905213049 21 204 0.0 3.2 0.00 0.00 0.00 59 1017.2
20260905212954 21 188 0.0 3.2 0.00 0.00 0.00 58 1017.6
20260905212445 21 187 0.0 3.2 0.00 0.00 0.00 59 1017.7
20260905211945 21 136 0.0 3.2 0.00 0.00 0.00 59 1017.7
20260905211548 21 237 0.0 3.2 0.00 0.00 0.00 59 1017.3
20260905211454 21 154 0.0 4.8 0.00 0.00 0.00 59 1017.7
20260905210945 21 155 0.0 4.8 0.00 0.00 0.00 59 1017.6
20260905210445 21 124 1.6 4.8 0.00 0.00 0.00 58 1017.7
20260905210052 21 163 1.6 4.8 0.00 0.00 0.00 57 1017.3
20260905205956 21 158 3.2 4.8 0.00 0.00 0.00 57 1017.7
20260905205445 22 205 0.0 1.6 0.00 0.00 0.00 56 1017.8
20260905204956 22 205 0.0 1.6 0.00 0.00 0.00 55 1017.9
20260905204554 22 203 0.0 1.6 0.00 0.00 0.00 55 1017.5
20260905204454 22 203 0.0 1.6 0.00 0.00 0.00 55 1017.9
20260905203945 22 203 0.0 3.2 0.00 0.00 0.00 54 1017.8
20260905203445 22 163 0.0 3.2 0.00 0.00 0.00 53 1017.8
20260905203110 22 150 0.0 3.2 0.00 0.00 0.00 52 1017.3
20260905202954 22 150 0.0 3.2 0.00 0.00 0.00 52 1017.8
20260905202456 22 164 0.0 3.2 0.00 0.00 0.00 52 1017.8
20260905201945 22 103 0.0 4.8 0.00 0.00 0.00 51 1017.7
20260905201546 22 133 0.0 4.8 0.00 0.00 0.00 51 1017.3
20260905201454 22 201 1.6 4.8 0.00 0.00 0.00 51 1017.8
20260905200945 22 205 0.0 4.8 0.00 0.00 0.00 50 1017.7
20260905200445 22 135 0.0 3.2 0.00 0.00 0.00 50 1017.8
20260905200054 22 187 0.0 3.2 0.00 0.00 0.00 51 1017.5
20260905195955 22 159 0.0 3.2 0.00 0.00 0.00 50 1017.8
20260905195445 22 164 0.0 3.2 0.00 0.00 0.00 50 1017.9
20260905194946 22 168 0.0 1.6 0.00 0.00 0.00 50 1017.9
20260905194545 22 167 0.0 3.2 0.00 0.00 0.00 50 1017.4
20260905194454 22 167 0.0 4.8 0.00 0.00 0.00 50 1017.9
20260905193946 22 229 1.6 4.8 0.00 0.00 0.00 50 1017.8
20260905193445 22 108 0.0 4.8 0.00 0.00 0.00 50 1017.8
20260905193045 22 153 0.0 4.8 0.00 0.00 0.00 51 1017.3
20260905192954 22 164 1.6 4.8 0.00 0.00 0.00 51 1017.8
20260905192445 23 168 1.6 3.2 0.00 0.00 0.00 51 1017.8
20260905191945 23 226 0.0 3.2 0.00 0.00 0.00 51 1017.8
20260905191546 23 222 0.0 3.2 0.00 0.00 0.00 51 1017.5
20260905191455 23 159 0.0 3.2 0.00 0.00 0.00 51 1017.8
20260905190957 23 160 0.0 3.2 0.00 0.00 0.00 51 1017.8
20260905190446 23 161 1.6 3.2 0.00 0.00 0.00 50 1017.8
20260905190046 23 157 0.0 1.6 0.00 0.00 0.00 50 1017.5
20260905185955 23 133 0.0 1.6 0.00 0.00 0.00 50 1017.9
20260905185446 24 211 0.0 3.2 0.00 0.00 0.00 50 1017.8
20260905184946 24 243 0.0 3.2 0.00 0.00 0.00 50 1017.8
20260905184545 24 155 0.0 1.6 0.00 0.00 0.00 50 1017.4
20260905184506 24 136 0.0 1.6 0.00 0.00 0.00 50 1017.8
20260905183946 24 136 0.0 1.6 0.00 0.00 0.00 50 1017.7
20260905183446 24 244 0.0 1.6 0.00 0.00 0.00 49 1017.8
20260905183045 25 245 0.0 1.6 0.00 0.00 0.00 49 1017.4
20260905182955 25 245 0.0 1.6 0.00 0.00 0.00 49 1017.7
20260905182457 25 246 0.0 4.8 0.00 0.00 0.00 48 1017.7
20260905181957 25 183 1.6 4.8 0.00 0.00 0.00 48 1017.6
20260905181602 25 172 0.0 3.2 0.00 0.00 0.00 48 1017.2
20260905181506 25 203 0.0 3.2 0.00 0.00 0.00 49 1017.6
20260905180946 25 170 1.6 3.2 0.00 0.00 0.00 49 1017.5
20260905180446 25 161 0.0 1.6 0.00 0.00 0.00 49 1017.6
20260905180046 25 200 0.0 3.2 0.00 0.00 0.00 49 1017.1
20260905175955 25 200 0.0 3.2 0.00 0.00 0.00 49 1017.5
20260905175447 25 200 1.6 4.8 0.00 0.00 0.00 48 1017.3
20260905174946 25 198 0.0 3.2 0.00 0.00 0.00 48 1017.3
20260905174551 25 220 0.0 6.4 0.00 0.00 0.00 47 1016.9
20260905174455 25 144 0.0 6.4 0.00 0.00 0.00 47 1017.3
20260905173946 26 191 3.2 6.4 0.00 0.00 0.00 47 1017.3
20260905173446 26 184 1.6 8.0 0.00 0.00 0.00 46 1017.3
20260905173046 26 181 3.2 8.0 0.00 0.00 0.00 46 1016.7
20260905173006 26 182 3.2 8.0 0.00 0.00 0.00 45 1017.2
20260905172446 26 226 1.6 6.4 0.00 0.00 0.00 45 1017.1
20260905171946 26 214 1.6 8.0 0.00 0.00 0.00 44 1017.1
20260905171546 27 205 1.6 8.0 0.00 0.00 0.00 44 1016.7
20260905171455 27 149 1.6 3.2 0.00 0.00 0.00 44 1017.1
20260905170946 27 229 0.0 4.8 0.00 0.00 0.00 44 1017.1
20260905170446 27 238 0.0 6.4 0.00 0.00 0.00 44 1017.0
20260905170046 27 205 1.6 9.7 0.00 0.00 0.00 43 1016.4
20260905165955 27 204 3.2 9.7 0.00 0.00 0.00 43 1016.8
20260905165457 27 220 4.8 9.7 0.00 0.00 0.00 42 1016.8
20260905164946 28 171 4.8 8.0 0.00 0.00 0.00 42 1016.8
20260905164546 28 173 3.2 8.0 0.00 0.00 0.00 41 1016.4
20260905164455 28 210 3.2 8.0 0.00 0.00 0.00 41 1016.8
20260905163946 28 230 3.2 8.0 0.00 0.00 0.00 41 1016.8
20260905163446 28 150 3.2 9.7 0.00 0.00 0.00 41 1016.9
20260905163048 29 168 3.2 11.3 0.00 0.00 0.00 42 1016.4
20260905162955 29 224 3.2 11.3 0.00 0.00 0.00 42 1016.8
20260905162446 30 150 3.2 11.3 0.00 0.00 0.00 40 1016.9
20260905161946 30 139 6.4 11.3 0.00 0.00 0.00 41 1016.8
20260905161546 30 220 1.6 9.7 0.00 0.00 0.00 39 1016.5
20260905161456 30 140 3.2 11.3 0.00 0.00 0.00 39 1016.9
20260905160957 31 153 4.8 11.3 0.00 0.00 0.00 36 1016.9
20260905160446 31 169 3.2 11.3 0.00 0.00 0.00 35 1016.9
20260905160114 31 154 3.2 11.3 0.00 0.00 0.00 34 1016.5
20260905160006 31 157 6.4 11.3 0.00 0.00 0.00 33 1016.9
20260905155447 31 252 3.2 9.7 0.00 0.00 0.00 36 1016.9
20260905154946 31 162 3.2 11.3 0.00 0.00 0.00 36 1017.0
20260905154549 31 123 4.8 11.3 0.00 0.00 0.00 37 1016.5
20260905154507 32 257 4.8 11.3 0.00 0.00 0.00 37 1016.9
20260905153946 32 282 4.8 11.3 0.00 0.00 0.00 37 1016.8
20260905153447 32 226 3.2 16.1 0.00 0.00 0.00 37 1016.8
20260905153047 32 195 3.2 16.1 0.00 0.00 0.00 37 1016.2
20260905152956 32 91 3.2 16.1 0.00 0.00 0.00 37 1016.7
20260905152458 32 139 4.8 12.9 0.00 0.00 0.00 37 1016.7
20260905151947 32 206 4.8 16.1 0.00 0.00 0.00 36 1016.6
20260905151547 32 158 4.8 16.1 0.00 0.00 0.00 35 1016.3
20260905151507 32 182 6.4 16.1 0.00 0.00 0.00 35 1016.7
20260905150947 32 225 3.2 11.3 0.00 0.00 0.00 36 1016.8
20260905150447 32 243 3.2 17.7 0.00 0.00 0.00 37 1016.7
20260905150047 33 167 4.8 17.7 0.00 0.00 0.00 37 1016.2
20260905145956 33 255 6.4 17.7 0.00 0.00 0.00 37 1016.6
20260905145447 33 231 3.2 11.3 0.00 0.00 0.00 33 1016.6
20260905144947 33 188 4.8 14.5 0.00 0.00 0.00 34 1016.6
20260905144546 33 191 4.8 14.5 0.00 0.00 0.00 32 1016.1
20260905144456 33 243 6.4 14.5 0.00 0.00 0.00 32 1016.6
20260905143948 33 292 4.8 9.7 0.00 0.00 0.00 32 1016.5
20260905143448 33 256 1.6 11.3 0.00 0.00 0.00 30 1016.6
20260905143047 33 266 0.0 11.3 0.00 0.00 0.00 30 1016.3
20260905142956 33 259 3.2 11.3 0.00 0.00 0.00 30 1016.7
20260905142449 33 298 3.2 9.7 0.00 0.00 0.00 30 1016.7
20260905141947 33 314 1.6 9.7 0.00 0.00 0.00 29 1016.7
20260905141547 33 9 1.6 11.3 0.00 0.00 0.00 29 1016.4
20260905141456 33 155 3.2 11.3 0.00 0.00 0.00 29 1016.8
20260905140947 33 273 4.8 11.3 0.00 0.00 0.00 29 1016.9
20260905140448 33 335 4.8 9.7 0.00 0.00 0.00 29 1016.8
20260905140047 33 297 3.2 11.3 0.00 0.00 0.00 29 1016.5
20260905135958 33 273 3.2 11.3 0.00 0.00 0.00 29 1016.9
20260905135447 33 290 4.8 11.3 0.00 0.00 0.00 29 1017.0
20260905134947 33 238 3.2 9.7 0.00 0.00 0.00 29 1017.1
20260905134548 33 304 4.8 12.9 0.00 0.00 0.00 29 1016.7
20260905134456 33 280 4.8 12.9 0.00 0.00 0.00 29 1017.1
20260905133947 33 322 4.8 12.9 0.00 0.00 0.00 27 1017.2
20260905133447 33 317 4.8 12.9 0.00 0.00 0.00 27 1017.2
20260905133047 33 237 4.8 11.3 0.00 0.00 0.00 27 1016.9
20260905133007 33 288 6.4 11.3 0.00 0.00 0.00 27 1017.3
20260905132459 33 297 4.8 12.9 0.00 0.00 0.00 27 1017.3
20260905131958 33 309 6.4 12.9 0.00 0.00 0.00 27 1017.4
20260905131548 33 281 6.4 12.9 0.00 0.00 0.00 28 1017.0
20260905131456 33 336 4.8 11.3 0.00 0.00 0.00 27 1017.4
20260905130949 33 295 4.8 11.3 0.00 0.00 0.00 27 1017.5
20260905130449 33 309 4.8 12.9 0.00 0.00 0.00 26 1017.5
20260905130048 33 297 4.8 12.9 0.00 0.00 0.00 26 1017.1
20260905125957 33 38 6.4 12.9 0.00 0.00 0.00 26 1017.5
20260905125449 33 288 4.8 12.9 0.00 0.00 0.00 26 1017.5
20260905124949 33 302 6.4 16.1 0.00 0.00 0.00 26 1017.6
20260905124552 33 304 4.8 16.1 0.00 0.00 0.00 26 1017.3
20260905124456 33 311 3.2 9.7 0.00 0.00 0.00 27 1017.6
20260905123947 32 37 4.8 12.9 0.00 0.00 0.00 27 1017.7
20260905123448 32 347 6.4 16.1 0.00 0.00 0.00 27 1017.7
20260905123047 32 319 8.0 16.1 0.00 0.00 0.00 27 1017.4
20260905122956 32 326 9.7 16.1 0.00 0.00 0.00 27 1017.8
20260905122459 32 314 9.7 14.5 0.00 0.00 0.00 27 1017.9
20260905121949 32 306 6.4 14.5 0.00 0.00 0.00 27 1018.0
20260905121547 33 304 4.8 11.3 0.00 0.00 0.00 27 1017.6
20260905121458 33 230 4.8 11.3 0.00 0.00 0.00 27 1017.9
20260905120948 32 23 4.8 11.3 0.00 0.00 0.00 27 1018.0
20260905120449 32 292 6.4 14.5 0.00 0.00 0.00 27 1018.1
20260905120100 32 288 4.8 14.5 0.00 0.00 0.00 27 1017.9
20260905115957 32 297 6.4 14.5 0.00 0.00 0.00 28 1018.2
20260905115447 32 288 6.4 14.5 0.00 0.00 0.00 28 1018.3
20260905114949 32 325 8.0 14.5 0.00 0.00 0.00 28 1018.5
20260905114548 32 282 4.8 12.9 0.00 0.00 0.00 29 1018.0
20260905114458 32 297 4.8 12.9 0.00 0.00 0.00 30 1018.4
20260905113948 32 296 8.0 17.7 0.00 0.00 0.00 31 1018.5
20260905113449 32 289 6.4 16.1 0.00 0.00 0.00 31 1018.4
20260905113048 32 304 3.2 16.1 0.00 0.00 0.00 32 1018.0
20260905112957 32 323 3.2 16.1 0.00 0.00 0.00 32 1018.4
20260905112449 32 286 6.4 14.5 0.00 0.00 0.00 31 1018.5
20260905111948 32 340 6.4 14.5 0.00 0.00 0.00 31 1018.5
20260905111605 31 282 6.4 14.5 0.00 0.00 0.00 31 1018.1
20260905111508 31 342 8.0 16.1 0.00 0.00 0.00 32 1018.5
20260905110949 32 323 6.4 16.1 0.00 0.00 0.00 31 1018.4
20260905110501 32 239 4.8 12.9 0.00 0.00 0.00 33 1018.5
20260905110053 31 294 6.4 12.9 0.00 0.00 0.00 32 1018.2
20260905105958 32 314 6.4 12.9 0.00 0.00 0.00 32 1018.5
20260905105449 31 320 4.8 16.1 0.00 0.00 0.00 31 1018.6
20260905104948 31 272 8.0 16.1 0.00 0.00 0.00 33 1018.7
20260905104548 31 301 3.2 14.5 0.00 0.00 0.00 34 1018.3
20260905104457 31 258 6.4 14.5 0.00 0.00 0.00 34 1018.7
20260905103948 31 308 3.2 11.3 0.00 0.00 0.00 34 1018.8
20260905103448 31 319 4.8 9.7 0.00 0.00 0.00 35 1018.8
20260905103052 31 273 4.8 14.5 0.00 0.00 0.00 35 1018.5
20260905102959 31 319 4.8 14.5 0.00 0.00 0.00 35 1018.8
20260905102500 31 288 6.4 14.5 0.00 0.00 0.00 35 1018.8
20260905101948 31 29 4.8 12.9 0.00 0.00 0.00 36 1018.9
20260905101548 31 313 4.8 12.9 0.00 0.00 0.00 36 1018.5
20260905101458 31 294 6.4 17.7 0.00 0.00 0.00 35 1019.0
20260905100949 31 309 6.4 17.7 0.00 0.00 0.00 37 1019.0
20260905100448 31 342 4.8 11.3 0.00 0.00 0.00 35 1019.0
20260905100052 31 291 3.2 12.9 0.00 0.00 0.00 37 1018.6
20260905095958 31 339 4.8 12.9 0.00 0.00 0.00 36 1019.0
20260905095450 30 241 6.4 12.9 0.00 0.00 0.00 36 1019.1
20260905094949 30 321 4.8 9.7 0.00 0.00 0.00 39 1019.0
20260905094549 30 308 3.2 12.9 0.00 0.00 0.00 39 1018.8
20260905094457 30 274 4.8 12.9 0.00 0.00 0.00 40 1019.2
20260905093949 30 283 6.4 14.5 0.00 0.00 0.00 41 1019.2
20260905093449 30 291 6.4 14.5 0.00 0.00 0.00 41 1019.3
20260905093049 30 301 4.8 14.5 0.00 0.00 0.00 40 1018.9
20260905093009 30 9 4.8 14.5 0.00 0.00 0.00 40 1019.3
20260905092459 30 250 8.0 14.5 0.00 0.00 0.00 41 1019.4
20260905091950 30 33 4.8 9.7 0.00 0.00 0.00 42 1019.4
20260905091616 30 300 3.2 12.9 0.00 0.00 0.00 43 1019.0
20260905091459 30 307 4.8 12.9 0.00 0.00 0.00 42 1019.5
20260905090948 30 311 8.0 11.3 0.00 0.00 0.00 42 1019.5
20260905090450 30 315 4.8 12.9 0.00 0.00 0.00 42 1019.5
20260905090104 30 347 4.8 12.9 0.00 0.00 0.00 42 1019.0
20260905085958 30 288 6.4 12.9 0.00 0.00 0.00 42 1019.4
20260905085448 29 297 4.8 11.3 0.00 0.00 0.00 43 1019.5
20260905084950 30 290 4.8 11.3 0.00 0.00 0.00 44 1019.5
20260905084559 29 297 3.2 11.3 0.00 0.00 0.00 44 1019.1
20260905084458 29 278 3.2 11.3 0.00 0.00 0.00 44 1019.5
20260905083948 29 306 6.4 12.9 0.00 0.00 0.00 45 1019.5
20260905083450 29 353 4.8 12.9 0.00 0.00 0.00 45 1019.6
20260905083048 30 293 3.2 9.7 0.00 0.00 0.00 44 1019.1
20260905083010 30 288 4.8 9.7 0.00 0.00 0.00 44 1019.5
20260905082449 29 6 1.6 9.7 0.00 0.00 0.00 45 1019.6
20260905082000 29 278 6.4 9.7 0.00 0.00 0.00 45 1019.6
20260905081550 29 276 3.2 9.7 0.00 0.00 0.00 45 1019.2
20260905081459 29 307 3.2 9.7 0.00 0.00 0.00 45 1019.7
20260905080950 29 249 3.2 8.0 0.00 0.00 0.00 47 1019.6
20260905080449 28 290 4.8 9.7 0.00 0.00 0.00 46 1019.7
20260905080054 28 48 3.2 9.7 0.00 0.00 0.00 46 1019.2
20260905080009 28 20 6.4 11.3 0.00 0.00 0.00 46 1019.7
20260905075449 28 322 3.2 11.3 0.00 0.00 0.00 48 1019.7
20260905074949 28 276 4.8 9.7 0.00 0.00 0.00 45 1019.7
20260905074549 28 308 4.8 11.3 0.00 0.00 0.00 45 1019.2
20260905074458 28 316 6.4 11.3 0.00 0.00 0.00 47 1019.6
20260905073949 28 34 6.4 11.3 0.00 0.00 0.00 46 1019.6
20260905073449 28 322 4.8 11.3 0.00 0.00 0.00 46 1019.6
20260905073055 28 36 3.2 11.3 0.00 0.00 0.00 46 1019.1
20260905073009 28 325 4.8 11.3 0.00 0.00 0.00 46 1019.6
20260905072449 28 289 4.8 11.3 0.00 0.00 0.00 45 1019.5
20260905072000 28 345 3.2 11.3 0.00 0.00 0.00 45 1019.4
20260905071550 28 254 1.6 6.4 0.00 0.00 0.00 46 1019.2
20260905071458 28 18 1.6 6.4 0.00 0.00 0.00 46 1019.5
20260905070951 27 321 1.6 6.4 0.00 0.00 0.00 47 1019.5
20260905070449 27 288 4.8 6.4 0.00 0.00 0.00 46 1019.5
20260905070052 27 325 1.6 8.0 0.00 0.00 0.00 48 1019.1
20260905065958 27 354 3.2 8.0 0.00 0.00 0.00 47 1019.5
20260905065449 27 317 4.8 8.0 0.00 0.00 0.00 47 1019.7